Change the Weather History Date:

Wednesday, August 14, 2013

  Actual Average Record
Temperature  
Mean Temperature 70 °F 67 °F  
Max Temperature 87 °F 83 °F 101 °F (2010)
Min Temperature 53 °F 51 °F 39 °F (1955)
Degree Days  
Heating Degree Days 0 1  
Month to date heating degree days 8 14  
Since 1 June heating degree days 106 207  
Since 1 July heating degree days 14 50  
Cooling Degree Days 5 3  
Month to date cooling degree days 53 51  
Year to date cooling degree days 252 168  
Since 1 June cooling degree days 247 163  
Growing Degree Days 20 (Base 50)    
Moisture  
Dew Point 52 °F    
Average Humidity 52    
Maximum Humidity 77    
Minimum Humidity 27    
Precipitation  
Precipitation 0.00 in 0.02 in 0.70 in (1976)
Month to date precipitation T 0.18  
Year to date precipitation 9.67 25.58  
Snow  
Snow 0.00 in - - ()
Month to date snowfall 0.0  
Since 1 June snowfall 0.0  
Since 1 July snowfall 0.0  
Snow Depth 0.00 in    
Sea Level Pressure  
Sea Level Pressure 29.97 in    
Wind  
Wind Speed 7 mph (SW)    
Max Wind Speed 17 mph    
Max Gust Speed 24 mph    
Visibility 10 miles    
Events      
T = Trace of Precipitation, MM = Missing Value Source: NWS Daily Summary

Daily Weather History Graph

Daily Weather History Graph

Search for Another Location

Airport or City:

Trip Planner

Search our weather history database for the weather conditions in past years. The results will help you decide how hot, cold, wet, or windy it might be!

Date:

Astronomy

Aug. 14, 2013 Rise Set
Actual Time 6:15 AM PDT 8:18 PM PDT
Civil Twilight 5:44 AM PDT 8:49 PM PDT
Nautical Twilight 5:05 AM PDT 9:28 PM PDT
Astronomical Twilight 4:22 AM PDT 10:10 PM PDT
Moon 2:39 PM PDT (8/14) No Moon Set
Length of Visible Light 15h 05m
Length of Day
14h 02m
First Quarter, 54% of the Moon is Illuminated
Aug 14
First Quarter
Aug 20
Full
Aug 28
Last Quarter
Sep 5
New
Sep 12
First Quarter

Hourly Weather History & Observations

Time (PDT) Temp. Dew Point Humidity Pressure Visibility Wind Dir Wind Speed Gust Speed Precip Events Conditions
12:54 AM 63.0 °F 50.0 °F 63% 29.98 in 10.0 mi SSW 9.2 mph - N/A   Clear
1:54 AM 61.0 °F 51.1 °F 70% 29.98 in 10.0 mi SSW 8.1 mph - N/A   Clear
2:54 AM 59.0 °F 48.9 °F 69% 29.98 in 10.0 mi SSE 5.8 mph - N/A   Clear
3:54 AM 59.0 °F 48.9 °F 69% 29.98 in 10.0 mi South 5.8 mph - N/A   Clear
4:54 AM 57.0 °F 48.9 °F 74% 29.97 in 10.0 mi SSW 4.6 mph - N/A   Clear
5:54 AM 54.0 °F 46.9 °F 77% 29.98 in 10.0 mi South 5.8 mph - N/A   Scattered Clouds
6:54 AM 55.0 °F 48.9 °F 80% 29.98 in 10.0 mi SSW 4.6 mph - N/A   Mostly Cloudy
7:54 AM 63.0 °F 53.1 °F 70% 29.98 in 10.0 mi South 5.8 mph - N/A   Mostly Cloudy
8:54 AM 66.9 °F 52.0 °F 59% 29.98 in 10.0 mi WSW 5.8 mph - N/A   Mostly Cloudy
9:54 AM 68.0 °F 52.0 °F 56% 29.98 in 10.0 mi WSW 4.6 mph - N/A   Mostly Cloudy
10:54 AM 73.9 °F 50.0 °F 43% 29.97 in 10.0 mi SW 4.6 mph - N/A   Mostly Cloudy
11:54 AM 78.1 °F 48.0 °F 35% 29.96 in 10.0 mi West 4.6 mph - N/A   Mostly Cloudy
12:54 PM 82.0 °F 48.0 °F 30% 29.95 in 10.0 mi West 8.1 mph - N/A   Mostly Cloudy
1:54 PM 82.9 °F 48.0 °F 29% 29.94 in 10.0 mi West 4.6 mph - N/A   Mostly Cloudy
2:54 PM 84.9 °F 46.9 °F 27% 29.94 in 10.0 mi West 13.8 mph 18.4 mph N/A   Mostly Cloudy
3:54 PM 84.9 °F 46.9 °F 27% 29.93 in 10.0 mi WNW 9.2 mph 17.3 mph N/A   Mostly Cloudy
4:54 PM 82.9 °F 52.0 °F 34% 29.94 in 10.0 mi West 12.7 mph - N/A   Mostly Cloudy
5:54 PM 79.0 °F 53.1 °F 40% 29.95 in 10.0 mi NW 10.4 mph - N/A   Mostly Cloudy
6:54 PM 75.9 °F 55.0 °F 48% 29.95 in 10.0 mi West 6.9 mph - N/A   Mostly Cloudy
7:54 PM 73.9 °F 57.0 °F 55% 29.96 in 10.0 mi West 6.9 mph - N/A   Mostly Cloudy
8:54 PM 70.0 °F 57.9 °F 65% 29.96 in 10.0 mi WNW 4.6 mph - N/A   Mostly Cloudy
9:54 PM 69.1 °F 57.9 °F 68% 29.97 in 10.0 mi Calm Calm - N/A   Mostly Cloudy
10:54 PM 64.9 °F 57.9 °F 78% 29.98 in 10.0 mi SW 4.6 mph - N/A   Scattered Clouds
11:35 PM 64.4 °F 55.4 °F 73% 29.98 in 10.0 mi Calm Calm - N/A   Mostly Cloudy
11:49 PM 64.4 °F 55.4 °F 73% 29.98 in 10.0 mi SE 3.5 mph - N/A   Scattered Clouds
11:54 PM 64.9 °F 55.9 °F 73% 29.97 in 10.0 mi SSE 3.5 mph - N/A   Partly Cloudy